Location: Ariel
(45.9570°N, 122.5700°W)
Time: 02:01:38
(UTC-07:00)

Vanguard 3 - Pass Details

Date: 25 August 2019
Orbit: 508 x 3263 km, 33.4° (Epoch: 14 September)

Event Time Altitude Azimuth Distance (km) Brightness Sun altitude
Rises 18:27:23 0° 244° (WSW) 4,895 12.4 15.4°
Reaches altitude 10° 18:31:52 10° 233° (SW) 3,390 11.3 14.6°
Maximum altitude 18:38:00 25° 183° (S) 1,831 9.1 13.5°
Drops below altitude 10° 18:42:13 10° 128° (SE) 2,238 9.0 12.8°
Sets 18:44:32 0° 114° (ESE) 2,944 9.5 12.4°
